カタログに戻る

O3B PFM

運用中通信MEO
NORAD 39191·PAYLOAD·🇱🇺 Luxembourg

打ち上げ Jun 25, 2013 から Guiana Space Centre

Loading…

次のパス (今後24時間)

TLE

最新Source: CelesTrak SupGP

元期: Sep 13, 2026, 22:59 UTC

1 39191C 13031D   26256.95833333  .00000000  00000+0  00000+0 0  2563
2 39191   0.0616 338.5685 0004911 169.9077 153.9004  5.00116171    15

AllMySatでO3B PFMをリアルタイム追跡

Download on the App Store